This demonstration page uses our WeatherBlox Daily Observations layout. Learn more.

Left ArrowRight Arrow

38.88101, -77.10428

Hourly Observations for November 28, 2022

Temp ( °F °C ) Dew Point ( °F °C ) Humidity (%) Winds ( mph kmh ) Pressure ( in mb ) Visibility ( mi km ) Precip ( " mm )
12:52 am 00:52 Mostly Cloudy with Fog 48 8.9 48 8.9 100 100 SSE 6 9 29.56 1001 10 16 0.00 0.00
1:52 am 01:52 Mostly Cloudy 50 10 49 9.4 96 96 SSW 3 6 29.58 1002 10 16 0.00 0.00
2:52 am 02:52 Mostly Cloudy 49 9.4 48 8.9 97 97 S 5 7 29.60 1002 10 16 0.00 0.00
3:52 am 03:52 Mostly Cloudy 50 10 49 9.4 96 96 Calm 29.60 1002 8 13 0.00 0.00
4:52 am 04:52 Cloudy 51 10.6 50 10 96 96 SSW 6 9 29.62 1003 10 16 0.00 0.00
5:52 am 05:52 Cloudy 51 10.6 49 9.4 92 92 SW 3 6 29.64 1004 10 16 0.00 0.00
6:52 am 06:52 Mostly Cloudy 51 10.6 48 8.9 89 89 undefined N/A 29.68 1005 10 16 0.00 0.00
7:52 am 07:52 Mostly Cloudy 55 12.8 44 6.7 66 66 NW 15 24 29.73 1007 10 16 0.00 0.00
8:52 am 08:52 Partly Cloudy 54 12.2 40 4.4 59 59 NNW 18 30 29.79 1009 10 16 0.00 0.00
9:52 am 09:52 Mostly Cloudy 52 11.1 37 2.8 57 57 NNW 25 41 29.85 1011 10 16 0.00 0.00
10:52 am 10:52 Partly Cloudy 54 12.2 37 2.8 53 53 NW 20 31 29.85 1011 10 16 0.00 0.00
11:52 am 11:52 Partly Cloudy 55 12.8 37 2.8 51 51 NNW 21 33 29.85 1011 10 16 0.00 0.00
12:52 pm 12:52 Mostly Cloudy 54 12.2 35 1.7 49 49 NW 21 33 29.87 1011 10 16 0.00 0.00
1:52 pm 13:52 Mostly Cloudy 53 11.7 36 2.2 52 52 NW 18 30 29.88 1012 10 16 0.00 0.00
2:52 pm 14:52 Mostly Cloudy 54 12.2 36 2.2 50 50 NW 15 24 29.91 1013 10 16 0.00 0.00
3:52 pm 15:52 Cloudy 53 11.7 36 2.2 52 52 NW 13 20 29.94 1014 10 16 0.00 0.00
4:52 pm 16:52 Cloudy 53 11.7 36 2.2 52 52 NW 9 15 29.98 1015 10 16 0.00 0.00
5:52 pm 17:52 Cloudy 52 11.1 36 2.2 54 54 NW 8 13 30.00 1016 10 16 0.00 0.00
6:52 pm 18:52 Mostly Cloudy 52 11.1 36 2.2 54 54 WNW 7 11 30.03 1017 10 16 0.00 0.00
7:52 pm 19:52 Cloudy 50 10 36 2.2 58 58 W 7 11 30.06 1018 10 16 0.00 0.00
8:52 pm 20:52 Mostly Cloudy 50 10 35 1.7 56 56 WNW 8 13 30.09 1019 10 16 0.00 0.00
9:52 pm 21:52 Partly Cloudy 48 8.9 34 1.1 58 58 NW 10 17 30.10 1019 10 16 0.00 0.00
10:52 pm 22:52 Mostly Clear 47 8.3 33 0.6 58 58 W 9 15 30.14 1021 10 16 0.00 0.00
11:52 pm 23:52 Mostly Clear 45 7.2 36 2.2 70 70 N 5 7 30.14 1021 10 16 0.00 0.00

Powered by AerisWeather